[[{"header":{"parameterUnit":"m.s-1","parameterCategory":1,"la1":30.2991,"la2":30.254,"lo1":-89.0895,"lo2":-89.0444,"dy":0.0017,"dx":0.0017,"nx":28,"ny":28,"refTime":"2024-11-25T03:00:00:Z","depth":0,"parameterNumber":2,"parameterNumberName":"U-component_of_WINDS"},"data":[0,0,0,0,0,0,0,0,0,0,0,0,0,0,0,0,0,0,0,0,0,0,0,0,0,0,0,0,0,0,0,0,0,0,0,0,0,0,0,0,0,0,0,0,0,0,0,0,0,0,0,0,0,0,0,0,0,0,2.2816,2.2817,0,2.2883,2.2884,2.2885,2.2863,2.2862,2.286,2.2859,2.2931,2.2934,2.2937,0,0,0,0,0,0,0,0,0,0,0,0,0,2.2673,2.2676,2.2816,2.2817,2.2818,2.2883,2.2884,2.2885,2.2864,2.2862,2.286,2.2858,2.293,2.2933,2.2937,0,0,0,0,0,0,0,0,0,0,0,0,0,2.2737,2.2677,2.2816,2.2815,2.2816,2.2883,2.2884,2.2885,2.2864,2.2862,2.286,2.2858,2.2928,2.2933,2.2938,2.3011,0,0,2.2953,2.2955,0,0,0,0,0,0,0,0,2.2734,2.2743,2.2814,2.2815,2.2816,2.2863,2.286,2.2927,2.2864,2.2846,2.2859,2.2857,2.291,2.2916,2.2934,2.3014,2.3017,2.2953,2.2956,2.2958,2.296,0,0,0,0,0,0,0,2.2729,2.274,2.2843,2.2815,2.2817,2.2812,2.2819,2.2873,2.2889,2.2847,2.2846,2.2854,2.291,2.2929,2.2935,2.3018,2.2953,2.2957,2.296,2.2962,2.3163,2.3166,0,0,0,0,0,0,2.2724,2.2736,2.2841,2.2845,2.2769,2.2817,2.2824,2.285,2.2889,2.2892,2.2856,2.2853,2.2922,2.2929,2.2938,2.3026,2.2958,2.2963,2.2966,2.3161,2.3164,2.3167,0,0,0,0,0,0,2.2721,2.2734,2.2838,2.279,2.2803,2.2821,2.285,2.2852,2.2871,2.2895,2.2898,2.2872,2.292,2.2931,2.2993,2.3028,2.2965,2.2969,2.3158,2.3162,2.3165,2.3203,0,0,0,0,0,0,2.2717,2.2733,2.276,2.2791,2.2806,2.2891,2.2853,2.2855,2.2879,2.2876,2.2911,2.2914,2.2919,2.2986,2.2998,2.3033,2.2973,2.3155,2.316,2.3164,2.3198,2.3207,2.3215,0,0,0,0,0,2.2712,2.2768,2.2761,2.2774,2.284,2.2893,2.2902,2.2905,2.2882,2.291,2.2925,2.2913,2.3022,2.2992,2.3006,2.3043,2.3153,2.3159,2.3164,2.3195,2.3205,2.3214,0,0,0,0,0,0,2.2741,2.2772,2.2765,2.2832,2.286,2.2889,2.2924,2.2917,2.2952,2.2948,2.2952,2.296,2.3024,2.304,2.3006,2.3117,2.3084,2.3093,2.3103,2.3114,2.3122,2.3116,2.2977,0,0,0,0,0,2.2755,2.2795,2.2821,2.2878,2.2892,2.2906,2.2929,2.293,2.2959,2.2971,2.2991,2.3021,2.3062,2.3089,2.3128,2.3201,2.3209,2.3234,2.3242,2.3248,2.3255,2.3296,2.3307,2.3185,2.3184,2.3184,0,0,2.2785,2.2807,2.2832,2.2884,2.2906,2.2948,2.2916,2.2962,2.2993,2.2978,2.3038,2.3054,2.3088,2.3155,2.3186,2.3171,2.3291,2.3255,2.326,2.3264,2.3302,2.3314,2.3324,2.3188,2.3188,2.3187,0,0,2.2861,2.2882,2.2931,2.2954,2.2987,2.2996,2.3008,2.3039,2.3048,2.3108,2.3098,2.3136,2.3207,2.3231,2.3253,2.3339,2.333,2.3352,2.3394,2.3433,2.3443,2.3452,2.3482,2.3493,2.3359,2.3359,2.3359,0,2.2894,2.2956,2.2958,2.3005,2.3028,2.3017,2.3068,2.309,2.3134,2.3151,2.3133,2.3222,2.3244,2.3317,2.3338,2.3356,2.3371,2.3347,2.3441,2.345,2.3458,2.3487,2.3499,2.3362,2.3361,2.3361,2.3361,0,2.2995,2.3038,2.3075,2.3117,2.3145,2.3194,2.3205,2.3233,2.3231,2.3243,2.3304,2.333,2.3375,2.3392,2.3392,2.3466,2.3456,2.344,2.3407,2.3472,2.35,2.3511,2.3365,2.3364,2.3364,2.3363,0,0,2.3089,2.3133,2.3146,2.3165,2.3202,2.3236,2.3285,2.3327,2.3351,2.3383,2.3424,2.3485,2.347,2.3495,2.3497,2.3532,2.3599,2.3511,2.3512,2.3526,2.3683,2.3694,2.3707,2.3593,2.3595,2.3597,2.368,0,2.3167,2.3252,2.3256,2.3333,2.3374,2.3364,2.3407,2.3434,2.3447,2.3483,2.3498,2.354,2.3518,2.3533,2.3567,2.3583,2.363,2.3577,2.3632,2.3634,2.3623,2.3721,2.3733,2.381,2.3691,2.3692,2.3694,0,2.3269,2.3303,2.3384,2.3415,2.3432,2.347,2.351,2.3545,2.3577,2.3584,2.3612,2.3609,2.3661,2.3627,2.3699,2.3663,2.3686,2.3697,2.3701,2.3705,2.3667,2.3728,2.3835,2.3846,2.3711,2.3709,2.3708,0,2.3329,2.3396,2.3452,2.3469,2.3507,2.3534,2.3552,2.3581,2.3606,2.3642,2.3658,2.37,2.3722,2.3755,2.3764,2.3739,2.3836,2.3803,2.3843,2.3843,2.3863,2.3861,2.3974,2.3879,2.3879,2.3879,2.3878,0,2.3415,2.3465,2.348,2.3515,2.3571,2.3576,2.3632,2.3648,2.3674,2.3713,2.3708,2.3745,2.3755,2.3794,2.3802,2.386,2.3871,2.3878,2.3879,2.3878,2.3877,2.3892,2.3887,2.3882,2.3881,2.388,2.388,0,2.3491,2.3503,2.3564,2.3595,2.3604,2.3644,2.3671,2.3706,2.3718,2.3767,2.3779,2.3798,2.3844,2.3857,2.3912,2.3918,2.3986,2.3983,2.3974,2.3974,2.4014,2.4009,2.4139,2.4157,2.4051,2.4052,2.4053,0,2.3544,2.3582,2.3617,2.3643,2.3661,2.3702,2.3727,2.3735,2.3763,2.3802,2.3832,2.3877,2.3913,2.3987,2.4007,2.4049,2.4047,2.409,2.4053,2.4051,2.4047,2.4044,2.4048,2.4096,2.4097,2.4098,2.4099,0,2.3638,2.3642,2.3679,2.3719,2.375,2.3782,2.3812,2.3834,2.3846,2.3877,2.3924,2.3952,2.4008,2.4053,2.4096,2.4115,2.411,2.411,2.4122,2.412,2.4114,2.4117,2.3992,2.4107,2.4106,2.4106,2.4105,2.4105,2.3703,2.3737,2.3767,2.3809,2.3833,2.3862,2.3895,2.3912,2.3951,2.3996,2.3999,2.4049,2.4082,2.4139,2.416,2.4201,2.4188,2.4205,2.4209,2.4213,2.4216,2.4108,2.4209,2.4209,2.4208,2.4208,2.4208,0,2.3796,2.3815,2.3854,2.3896,2.393,2.3921,2.3955,2.3984,2.4028,2.4058,2.4094,2.4148,2.4192,2.4215,2.4259,2.4287,2.4286,2.4298,2.4296,2.4301,2.4225,2.421,2.4299,2.4299,2.4299,2.4299,2.4299,2.4299,2.3848,2.3904,2.3912,2.3981,2.4,2.4049,2.4069,2.4096,2.412,2.418,2.4216,2.4231,2.4259,2.4305,2.4346,2.4352,2.4368,2.4382,2.4387,2.4315,2.4306,2.4297,2.4283,2.4386,2.4386,2.4459,2.446,2.446]},{"header":{"parameterUnit":"m.s-1","parameterCategory":1,"la1":30.2991,"la2":30.254,"lo1":-89.0895,"lo2":-89.0444,"dy":0.0017,"dx":0.0017,"nx":28,"ny":28,"refTime":"2024-11-25T03:00:00:Z","depth":0,"parameterNumber":3,"parameterNumberName":"V-component_of_WINDS"},"data":[0,0,0,0,0,0,0,0,0,0,0,0,0,0,0,0,0,0,0,0,0,0,0,0,0,0,0,0,0,0,0,0,0,0,0,0,0,0,0,0,0,0,0,0,0,0,0,0,0,0,0,0,0,0,0,0,0,0,3.3237,3.3239,0,3.3351,3.3353,3.3354,3.3353,3.3351,3.335,3.3348,3.3467,3.3471,3.3476,0,0,0,0,0,0,0,0,0,0,0,0,0,3.3022,3.3026,3.3237,3.3239,3.324,3.3351,3.3353,3.3354,3.3353,3.3351,3.3349,3.3347,3.3466,3.3471,3.3476,0,0,0,0,0,0,0,0,0,0,0,0,0,3.3123,3.3027,3.3237,3.3253,3.3255,3.3351,3.3353,3.3355,3.3353,3.3351,3.3349,3.3347,3.3464,3.347,3.3477,3.3565,0,0,3.3498,3.3501,0,0,0,0,0,0,0,0,3.3118,3.3131,3.3249,3.3252,3.3255,3.3335,3.332,3.3425,3.3354,3.3316,3.3348,3.3345,3.3425,3.3435,3.3462,3.3571,3.3576,3.3499,3.3503,3.3506,3.3508,0,0,0,0,0,0,0,3.3111,3.3126,3.3283,3.3251,3.3254,3.3255,3.3267,3.334,3.3382,3.3319,3.3319,3.3333,3.3426,3.3455,3.3464,3.3578,3.3499,3.3505,3.3509,3.3512,3.3767,3.377,0,0,0,0,0,0,3.31,3.3121,3.3279,3.3286,3.3179,3.3261,3.3274,3.3312,3.3381,3.339,3.3335,3.3332,3.3444,3.3456,3.3468,3.3578,3.3506,3.3512,3.3516,3.3764,3.3768,3.377,0,0,0,0,0,0,3.3095,3.3114,3.3274,3.3203,3.3224,3.3267,3.3309,3.3315,3.3344,3.3393,3.3401,3.3356,3.3443,3.3459,3.3542,3.3582,3.3515,3.3522,3.3761,3.3765,3.3769,3.3796,0,0,0,0,0,0,3.3089,3.3112,3.3145,3.3204,3.3228,3.3345,3.3312,3.3319,3.3356,3.3354,3.3415,3.3423,3.3442,3.3531,3.3548,3.359,3.3527,3.3758,3.3763,3.3768,3.3792,3.38,3.3808,0,0,0,0,0,3.3081,3.3148,3.3147,3.3166,3.327,3.3347,3.336,3.3381,3.3359,3.3393,3.3425,3.3421,3.3574,3.354,3.3559,3.3603,3.3755,3.3762,3.3767,3.3788,3.3799,3.3807,0,0,0,0,0,0,3.3094,3.3156,3.3156,3.3243,3.329,3.3346,3.339,3.3391,3.3445,3.3441,3.3465,3.3479,3.3562,3.3591,3.3551,3.3693,3.3662,3.3672,3.3671,3.3682,3.369,3.3682,3.3533,0,0,0,0,0,3.3107,3.3163,3.3215,3.3288,3.3311,3.3347,3.3381,3.3393,3.3442,3.3462,3.3499,3.3548,3.3608,3.3646,3.3703,3.3795,3.381,3.3836,3.3844,3.385,3.3859,3.3912,3.3924,3.379,3.379,3.379,0,0,3.3134,3.3175,3.321,3.3291,3.3329,3.3388,3.3363,3.3426,3.3471,3.3472,3.3552,3.3582,3.3638,3.3726,3.3767,3.3753,3.3899,3.3858,3.3862,3.3868,3.3919,3.3932,3.3943,3.3794,3.3793,3.3793,0,0,3.3215,3.3251,3.3316,3.3354,3.3411,3.3434,3.345,3.3507,3.3526,3.3607,3.361,3.3663,3.3765,3.3805,3.3839,3.3936,3.3935,3.3954,3.3996,3.4048,3.4058,3.4068,3.4104,3.4117,3.3962,3.3962,3.3962,0,3.3242,3.333,3.335,3.3414,3.345,3.3453,3.352,3.3557,3.3629,3.3655,3.3638,3.3766,3.3804,3.3903,3.3927,3.3953,3.3973,3.3947,3.4055,3.4065,3.4074,3.4109,3.4123,3.3964,3.3964,3.3964,3.3964,0,3.3362,3.3423,3.3469,3.3539,3.3581,3.3646,3.3677,3.3717,3.3725,3.3751,3.3835,3.388,3.3948,3.3972,3.398,3.4072,3.4062,3.405,3.4019,3.4089,3.4122,3.4135,3.3967,3.3967,3.3966,3.3965,0,0,3.3453,3.3534,3.3551,3.3583,3.3646,3.3695,3.3761,3.3826,3.3861,3.3912,3.3969,3.4055,3.4044,3.4083,3.4096,3.4141,3.4217,3.4124,3.4125,3.4141,3.4324,3.4334,3.4349,3.4217,3.4219,3.4221,3.432,0,3.3542,3.3658,3.3678,3.3781,3.3839,3.3843,3.3901,3.3947,3.3973,3.4027,3.4056,3.4117,3.4098,3.4121,3.4166,3.4199,3.4255,3.4192,3.4272,3.4275,3.4259,3.4366,3.4376,3.4467,3.4333,3.4335,3.4337,0,3.366,3.3714,3.3822,3.3879,3.3904,3.3956,3.4018,3.4069,3.4122,3.4138,3.4181,3.419,3.426,3.4226,3.4324,3.4281,3.4315,3.4336,3.434,3.435,3.4311,3.438,3.4496,3.451,3.4357,3.4355,3.4354,0,3.3718,3.3817,3.3895,3.3923,3.3991,3.4027,3.4058,3.4108,3.4147,3.4201,3.4227,3.4289,3.4324,3.4373,3.4398,3.4371,3.4496,3.4463,3.4512,3.4512,3.4539,3.4537,3.4664,3.4559,3.4558,3.4558,3.4558,0,3.3816,3.3882,3.3923,3.3971,3.4046,3.4069,3.4144,3.4173,3.4218,3.4273,3.428,3.4332,3.4362,3.4419,3.4439,3.4519,3.4534,3.455,3.4555,3.455,3.4549,3.4574,3.4569,3.4562,3.4561,3.456,3.456,0,3.3893,3.3923,3.4009,3.4066,3.4082,3.4135,3.4185,3.4233,3.4259,3.4329,3.4347,3.4388,3.4455,3.4485,3.4568,3.4582,3.4673,3.4673,3.4655,3.4658,3.4706,3.4701,3.4854,3.4877,3.4755,3.4756,3.4757,0,3.3954,3.4006,3.4069,3.4106,3.4137,3.4197,3.4236,3.4261,3.4302,3.4367,3.4408,3.4475,3.453,3.4638,3.4676,3.474,3.4742,3.4791,3.4752,3.4746,3.4745,3.4742,3.4748,3.4799,3.48,3.4801,3.4802,0,3.406,3.4072,3.4128,3.419,3.4237,3.4288,3.4337,3.4367,3.44,3.4446,3.4515,3.4558,3.4643,3.471,3.4777,3.4809,3.4812,3.4814,3.4829,3.4825,3.4814,3.4823,3.4677,3.481,3.481,3.4809,3.4808,3.4808,3.4132,3.4179,3.4231,3.4294,3.4333,3.438,3.4428,3.446,3.4518,3.4588,3.46,3.4674,3.4727,3.4816,3.4851,3.491,3.4898,3.492,3.4926,3.4931,3.4935,3.4803,3.4922,3.4922,3.4922,3.4922,3.4921,0,3.4239,3.4273,3.4331,3.44,3.445,3.4447,3.4502,3.4544,3.4609,3.4658,3.4712,3.4792,3.4858,3.4901,3.4968,3.5007,3.5011,3.5024,3.5022,3.503,3.494,3.4921,3.5021,3.5021,3.5021,3.5021,3.5021,3.5021,3.4301,3.438,3.4399,3.4499,3.4533,3.4605,3.4636,3.468,3.4719,3.4808,3.4862,3.489,3.4938,3.5008,3.5069,3.508,3.5105,3.512,3.5131,3.5047,3.5036,3.5026,3.5009,3.5125,3.5125,3.5216,3.5217,3.5218]}]]